SCP
0 0 0 0 0 0 0 0 0 0 0 0 0 0 0 0 0 0 0 0 0 0 0 0 0 0 0 0 0 0 0 0 0 0 0 0 0 0 0 0 0 0 0 0 0 0 0 0 0 0 0 0 0 0
0 0 0 0 0 0 0 0 0 0 0 0 0 0 0 0 0 0 0 0 0 0 0 0 0 0 0 0 0 0 0 0 0 0 0 0 0 0 0 0 0 0 0 0 0 0 0 0 0 0 0 0 0 0
0 0 0 0 0 0 0 0 0 0 0 0 0 0 0 0 0 0 0 0 0 0 0 0 0 0 0 0 0 0 0 0 0 0 0 0 0 0 0 0 0 0 0 0 0 0 0 0 0 0 0 0 0 0
0 0 0 0 0 0 0 0 0 0 0 0 0 0 0 0 0 0 0 0 0 0 0 0 0 0 0 0 0 0 0 0 0 0 0 0 0 0 0 0 0 0 0 0 0 0 0 0 0 0 0 0 0 0
0 0 0 0 0 0 0 0 0 0 0 0 0 0 0 0 0 0 0 0 0 0 0 0 0 0 0 0 0 0 0 0 0 0 0 0 0 0 0 0 0 0 0 0 0 0 0 0 0 0 0 0 0 0
0 0 0 0 0 0 0 0 0 0 0 0 0 0 0 0 0 0 0 0 0 0 0 0 0 0 0 0 0 0 0 0 0 0 0 0 0 0 0 0 0 0 0 0 0 0 0 0 0 0 0 0 0 0
-0 -0 0 0 0 -0 0 0 0 0 0 0 0 0 0 0 0 0 0 0 0 0 0 0 0 0 0 0 0 0 0 0 0 0 0 0 0 0 0 0 0 0 0 0 0 0 0 0 0 0 0 0 0 0
0 0 0 0 0 0 0 0 0 0 0 0 0 0 0 0 0 0 0 0 0 0 0 0 0 0 0 0 0 0 0 0 0 0 0 0 0 0 0 0 0 0 0 0 0 0 0 0 0 0 0 0 0 0
0 0 0 0 0 0 0 0 0 0 0 0 0 0 0 0 0 0 0 0 0 0 0 0 0 0 0 0 0 0 0 0 0 0 0 0 0 0 0 0 0 0 0 0 0 0 0 0 0 0 0 0 0 0
0 0 0 0 0 0 0 0 0 0 0 0 0 0 0 0 0 0 0 0 0 0 0 0 0 0 0 0 0 0 0 0 0 0 0 0 0 0 0 0 0 0 0 0 0 0 0 0 0 0 0 0 0 0
0 0 0 0 0 0 0 0 0 0 0 0 0 0 0 0 0 0 0 0 0 0 0 0 0 0 0 0 0 0 0 0 0 0 0 0 0 0 0 0 0 0 0 0 0 0 0 0 0 0 0 0 0 0
0 0 0 0 0 0 0 0 0 0 0 0 0 0 0 0 0 0 0 0 0 0 0 0 0 0 0 0 0 0 0 0 0 0 0 0 0 0 0 0 0 0 0 0 0 0 0 0 0 0 0 0 0 0
0 0 0 0 0 0 0 0 0 -0 0 0 0 0 0 0 0 0 0 0 0 0 0 0 0 0 0 0 0 0 0 0 0 0 0 0 0 0 0 0 0 0 0 0 0 0 0 0 0 0 0 0 0 0
0 0 0 0 0 0 0 0 0 -0 -0 0 0 0 0 0 0 0 0 0 0 0 0 0 0 0 0 0 0 0 0 0 0 0 0 0 0 0 0 0 0 0 0 0 0 0 0 0 0 0 0 0 0 0
-0 0 0 0 0 0 0 0 0 -0 -0 0 0 0 0 0 0 0 0 0 0 0 0 0 0 0 0 0 0 0 0 0 0 0 0 0 0 0 0 0 0 0 0 0 0 0 0 0 0 0 0 0 0 0
0 0 0 0 0 0 0 0 0 -0 0 0 0 0 0 0 0 0 0 0 0 0 0 0 0 0 0 0 0 0 0 0 0 0 0 0 0 0 0 0 0 0 0 0 0 0 0 0 0 0 0 0 0 0
0 0 -0 0 0 -0 -0 0 0 0 0 0 0 0 0 0 0 0 0 0 0 0 0 0 0 0 0 0 0 0 0 0 0 0 0 0 0 0 0 0 0 0 0 0 0 0 0 0 0 0 0 0 0 0
0 0 0 0 0 0 0 0 0 0 0 0 0 0 0 0 0 0 0 0 0 0 0 0 0 0 0 0 0 0 0 0 0 0 0 0 0 0 0 0 0 0 0 0 0 0 0 0 0 0 0 0 0 0
0 0 0 -0 -0 0 0 0 0 0 0 0 0 0 0 -0 -0 0 0 0 0 0 0 0 0 0 0 0 0 0 0 0 0 0 0 0 0 0 0 0 0 0 0 0 0 0 0 0 0 0 0 0 0 0
-0 -0 -0 -0 0 0 0 0 0 0 0 0 0 0 -0 -0 0 0 0 0 0 0 0 0 0 0 0 0 0 0 0 0 0 0 0 0 0 0 0 0 0 0 0 0 0 0 0 0 0 0 0 0 0 0
0 0 0 0 0 0 0 0 0 0 0 0 0 0 0 0 0 0 0 0 0 0 0 0 0 0 0 0 0 0 0 0 0 0 0 0 0 0 0 0 0 0 0 0 0 0 0 0 0 0 0 0 0 0
0 0 0 0 0 0 -0 0 0 0 0 0 0 0 0 0 0 0 0 0 0 0 0 0 0 0 0 0 0 0 0 0 0 0 0 0 0 0 0 0 0 0 0 0 0 0 0 0 0 0 0 0 0 0
0 0 0 0 0 0 0 0 0 0 0 0 0 0 0 0 0 0 0 0 0 0 0 0 0 0 0 0 0 0 0 0 0 0 0 0 0 0 0 0 0 0 0 0 0 0 0 0 0 0 0 0 0 0
0 0 0 0 0 0 0 0 0 -0 0 0 0 0 -0 0 -0 0 0 0 0 0 0 0 0 0 0 0 0 0 0 0 0 0 0 0 0 0 0 0 0 0 0 0 0 0 0 0 0 0 0 0 0 0
0 0 0 0 0 0 0 0 0 0 0 0 0 -0 -0 -0 0 0 0 0 0 0 0 0 0 0 0 0 0 0 0 0 0 0 0 0 0 0 0 0 0 0 0 0 0 0 0 0 0 0 0 0 0 0
0 0 0 0 0 0 0 0 0 0 0 -0 -0 0 0 -0 0 0 0 0 0 0 0 0 0 0 0 0 0 0 0 0 0 0 0 0 0 0 0 0 0 0 0 0 0 0 0 0 0 0 0 0 0 0
0 0 0 0 0 0 -0 -0 -0 -0 -0 -0 -0 -0 0 -0 0 0 0 0 0 0 0 0 0 0 0 0 0 0 0 0 0 0 0 0 0 0 0 0 0 0 0 0 0 0 0 0 0 0 0 0 0 0
0 0 0 0 -0 -0 -0 -0 -0 -0 -0 -0 -0 -0 -0 -0 -0 0 0 0 0 0 0 0 0 0 0 0 0 0 0 0 0 0 0 0 0 0 0 0 0 0 0 0 0 0 0 0 0 0 0 0 0 0
0 0 0 0 0 0 0 0 0 0 0 0 0 0 0 0 0 0 0 0 0 0 -0 -0 0 0 0 0 0 0 0 0 0 0 0 0 0 0 0 0 0 0 0 0 0 0 0 0 0 0 0 0 0 0
0 0 0 0 0 0 0 0 0 0 0 0 0 0 0 0 0 0 0 0 0 0 0 0 0 0 0 0 0 0 0 0 0 0 0 0 0 0 0 0 0 0 0 0 0 0 0 0 0 0 0 0 0 0
0 0 0 0 0 0 0 0 0 0 0 0 0 0 0 0 0 0 0 0 0 0 0 0 0 0 0 0 0 0 0 0 0 0 0 0 0 0 0 0 0 0 0 0 0 0 0 0 0 0 0 0 0 0
0 0 0 0 0 0 0 0 0 0 0 0 0 0 0 0 0 0 0 0 0 0 0 0 0 0 0 0 0 0 0 0 0 0 0 0 0 0 0 0 0 0 0 0 0 0 0 0 0 0 0 0 0 0
0 0 0 0 0 0 0 0 0 0 0 0 0 0 0 0 0 0 0 0 0 0 0 0 0 0 0 0 0 0 0 0 0 0 0 0 0 0 0 0 0 0 0 0 0 0 0 0 0 0 0 0 0 0
Wind_Speed_500mb
25 20 16 19 21 20 21 26 34 36 36 28 21 16 15 21 20 18 16 10 8 11 10 4 6 4 9 8 7 15 13 5 2 9 8 7 6 11 5 5 17 16 14 7 7 5 29 18 12 34 14 3 4 11
24 23 19 19 21 24 25 29 34 43 43 31 24 18 14 24 23 23 21 18 15 10 16 20 15 14 16 14 29 7 8 7 4 5 3 5 4 3 8 12 1 13 12 15 18 16 8 38 5 18 7 9 7 6
28 26 26 22 22 27 24 20 18 36 48 35 26 21 17 17 22 20 23 22 20 20 18 15 17 18 19 17 12 10 8 9 12 9 5 3 6 4 7 7 6 5 3 7 9 6 5 25 17 15 12 16 13 5
31 27 25 23 22 25 28 25 21 19 46 36 28 22 16 15 17 19 22 23 15 12 7 4 13 15 16 15 15 12 26 19 21 13 6 5 5 2 3 1 3 3 8 6 6 2 6 4 21 10 11 5 1 3
25 25 23 25 21 26 32 33 29 22 28 32 27 20 15 14 16 18 21 21 14 6 8 6 13 11 14 16 17 20 28 34 28 5 5 2 4 6 3 4 3 7 6 6 6 10 11 9 10 8 7 2 3 5
27 29 28 29 33 46 56 49 43 45 43 38 26 22 21 20 21 18 8 14 20 12 8 4 4 4 12 19 23 26 27 19 11 11 3 6 6 4 4 2 6 8 10 4 7 7 12 7 7 6 8 8 10 13
63 65 59 58 60 56 52 48 43 38 33 31 29 27 23 20 17 10 6 6 21 15 6 4 6 5 15 17 12 12 14 11 8 8 5 9 6 9 4 4 4 6 14 11 15 20 12 18 9 8 5 8 9 9
53 51 49 45 52 51 49 44 38 32 28 26 24 23 23 22 27 33 28 13 23 10 6 6 1 3 12 5 7 8 8 7 7 5 6 4 10 5 3 15 17 6 18 13 11 5 13 15 16 11 10 17 16 15
36 40 41 38 41 41 39 38 37 32 27 25 21 20 20 12 8 12 13 12 9 8 5 6 8 6 13 6 9 7 6 5 3 3 1 6 2 7 11 21 18 20 9 11 8 9 6 3 10 16 18 15 16 20
25 28 32 32 32 29 26 23 21 22 20 19 16 9 8 9 24 18 4 3 4 4 3 3 8 3 10 5 4 6 6 5 5 5 7 4 6 11 8 10 1 9 11 7 11 14 16 16 12 12 14 17 21 27
18 21 22 27 24 19 13 8 5 6 9 9 7 8 16 22 8 5 7 7 7 8 5 5 6 6 5 6 4 4 4 1 5 7 8 3 6 5 16 28 20 20 21 24 24 25 25 25 26 25 24 27 29 32
22 21 26 25 21 22 25 20 13 8 10 10 13 19 14 4 6 10 2 5 2 9 3 6 8 8 13 10 6 2 6 4 6 2 6 5 6 2 3 8 16 18 20 22 25 26 26 25 25 25 26 27 28 30
29 33 35 33 30 27 23 23 24 17 16 12 6 5 3 6 10 10 8 7 3 6 16 14 5 11 10 7 9 5 7 7 10 4 8 7 3 2 3 6 5 4 6 9 8 8 8 8 10 11 13 16 18 20
33 34 31 29 25 21 18 16 19 18 7 7 7 5 7 6 4 1 7 6 5 9 6 8 7 5 7 5 4 9 5 7 4 5 12 4 6 1 4 4 7 4 3 4 4 4 4 2 2 4 7 11 15 20
38 33 30 25 19 10 13 9 10 12 6 5 4 3 3 7 7 6 10 9 11 13 2 7 5 4 1 6 2 7 4 7 10 10 5 5 4 2 2 3 4 3 1 1 1 2 4 5 6 9 13 18 23 28
41 47 39 29 17 5 7 10 12 10 6 4 7 4 9 4 5 8 15 5 20 5 4 3 3 6 3 6 5 7 12 11 7 3 3 4 4 3 2 1 1 3 3 4 7 9 12 14 16 19 23 27 32 37
60 54 29 24 13 9 10 11 7 6 7 7 6 7 6 2 9 9 18 17 22 10 1 2 7 11 3 4 1 7 9 4 4 6 8 6 3 1 4 6 6 6 8 10 11 16 20 23 27 32 32 33 36 40
54 29 21 18 14 13 12 8 6 7 12 10 3 6 5 7 11 6 19 16 13 10 9 1 0 2 6 9 7 3 3 2 3 5 1 2 2 5 6 8 11 14 15 18 20 23 28 32 36 40 41 43 42 44
25 18 16 14 15 11 7 7 8 8 8 5 4 6 5 4 7 15 24 13 5 6 9 3 3 3 4 2 3 1 4 6 3 6 12 14 11 10 17 18 19 20 21 24 25 27 30 34 38 41 44 47 51 50
11 10 12 11 12 7 7 8 8 7 4 3 5 6 4 4 9 10 19 10 5 5 12 7 1 1 1 1 1 4 7 11 14 13 5 3 10 19 25 28 26 26 26 28 30 36 37 34 39 44 46 48 51 48
9 8 4 4 8 11 9 6 8 6 3 2 4 6 5 7 9 16 19 18 10 10 3 6 4 4 4 4 4 4 7 10 13 12 19 16 15 24 23 25 28 32 35 36 36 34 38 40 38 39 41 41 42 43
10 10 9 9 8 7 10 12 5 4 2 3 5 8 9 7 12 16 18 16 9 7 6 7 10 9 7 6 6 7 9 11 13 14 17 20 24 22 17 20 20 20 25 28 30 30 29 30 31 30 30 29 30 30
6 6 9 11 7 9 6 10 4 10 5 9 4 5 6 6 11 13 9 7 5 11 12 11 12 10 9 8 8 9 11 12 15 18 18 19 21 24 24 23 23 22 20 20 24 26 27 26 26 26 25 24 24 23
7 8 12 12 19 5 8 12 9 10 7 8 7 5 7 11 20 7 2 4 6 9 11 11 10 8 6 6 8 11 14 13 14 14 15 17 17 18 22 21 23 25 26 25 24 24 25 26 26 26 25 25 25 25
7 23 15 13 19 12 12 11 11 8 6 7 7 6 7 14 5 6 1 6 14 11 10 11 10 11 12 11 12 14 18 20 21 20 20 22 22 23 24 29 29 26 27 24 25 25 25 25 26 26 26 26 26 26
15 23 14 10 11 9 2 7 8 5 3 9 3 11 8 4 7 3 5 9 12 13 14 14 14 14 13 14 16 17 21 24 25 25 21 21 25 29 28 27 25 26 28 28 29 27 26 28 29 28 27 27 28 30
11 8 11 16 8 6 5 2 3 3 6 4 6 9 6 7 4 7 9 10 16 20 20 20 20 21 21 18 20 22 24 26 27 27 26 28 29 29 28 27 25 25 26 28 30 31 31 30 31 31 32 28 30 35
9 14 2 18 6 7 5 1 2 1 4 2 5 4 5 9 7 8 8 17 19 18 19 20 19 20 19 18 18 18 18 20 22 25 24 22 20 22 22 21 21 23 24 26 29 31 34 36 37 37 38 39 36 33
6 20 15 5 4 3 2 4 4 2 7 4 5 5 7 8 8 10 12 15 17 18 17 17 20 20 20 21 21 21 21 23 26 26 24 24 23 22 25 27 28 30 34 35 34 39 42 43 44 47 47 47 45 43
12 24 7 5 2 3 2 6 8 16 17 12 12 12 13 11 10 12 13 15 16 18 19 19 21 21 22 23 22 20 26 28 27 28 31 30 32 32 33 35 38 38 42 45 44 42 42 47 50 52 54 56 55 54
16 13 8 5 7 5 11 26 23 20 14 10 14 16 16 15 10 7 11 19 19 23 23 21 21 24 24 24 26 27 23 23 24 27 30 32 32 33 34 36 39 41 44 47 48 49 49 50 51 53 55 56 55 55
11 7 10 6 5 12 20 11 13 7 6 6 6 8 10 10 8 5 14 22 21 24 27 28 27 23 26 27 29 30 33 33 32 34 38 42 43 43 45 47 47 49 51 54 56 57 57 60 62 63 65 65 64 63
10 9 7 10 9 7 11 22 5 9 8 6 5 6 6 7 8 7 23 22 25 31 30 31 27 27 31 34 34 36 38 38 41 46 50 52 55 56 59 60 60 60 61 62 63 64 66 67 70 70 71 72 72 71
Wind_Direction_500mb
185 179 177 166 172 177 183 182 177 178 172 173 169 174 193 198 189 193 167 145 110 104 86 127 161 94 89 92 137 159 109 123 344 139 167 175 142 212 125 156 172 157 147 175 85 97 259 157 120 167 218 175 85 74
180 181 163 157 169 167 168 174 175 187 176 171 174 166 169 184 183 180 170 162 110 111 117 109 111 120 113 76 124 77 86 101 106 120 114 124 132 150 144 216 352 188 188 178 175 208 200 183 156 201 171 147 139 105
170 165 161 163 167 177 175 177 189 164 157 156 155 153 150 164 182 177 168 156 138 114 110 121 108 107 133 135 144 108 83 106 86 84 120 104 126 157 169 245 106 247 337 163 108 211 181 192 198 181 156 131 126 98
153 158 159 158 167 178 175 174 173 176 168 155 158 157 149 146 156 172 160 148 139 117 104 76 116 119 103 106 141 137 144 125 94 66 67 96 131 49 189 237 139 192 118 146 309 133 82 314 213 186 184 166 43 359
148 154 146 136 133 153 166 163 165 169 160 157 162 156 142 135 141 155 159 163 142 88 138 110 123 97 134 98 114 125 146 142 123 90 70 110 103 77 36 45 288 187 180 188 215 125 98 115 114 164 189 287 353 335
138 138 136 134 135 127 122 129 134 126 114 122 142 146 141 133 131 128 116 180 173 101 92 83 105 124 125 140 124 130 131 114 109 118 107 100 134 98 86 228 283 193 184 142 149 65 54 57 59 64 38 45 29 16
111 104 99 107 103 104 100 99 99 99 104 104 110 117 119 128 142 92 95 154 165 147 92 73 354 90 135 136 136 120 111 95 86 103 97 135 125 131 127 195 254 216 198 204 207 179 172 181 183 184 159 104 89 73
92 92 95 94 92 94 96 97 97 100 107 114 112 111 121 116 109 82 81 109 152 122 100 110 2 61 151 92 84 97 86 101 67 93 114 106 127 120 241 247 228 153 171 156 158 133 119 137 138 118 2 353 357 15
104 108 105 102 98 98 101 102 95 90 97 103 112 112 105 100 76 95 91 76 133 77 100 91 139 195 152 87 92 80 90 50 48 75 323 133 277 218 218 218 224 203 159 159 161 131 139 244 295 324 338 342 336 325
118 118 112 105 102 105 103 102 98 90 90 106 116 72 80 80 115 112 56 43 81 53 95 122 135 151 144 86 48 95 49 110 161 225 136 113 251 246 219 213 148 167 232 286 306 305 307 300 305 305 304 304 308 308
140 136 129 129 114 112 98 88 96 118 118 84 69 66 107 126 102 69 60 51 348 1 180 173 161 124 144 108 150 66 151 47 121 247 147 290 276 200 224 220 230 244 256 266 270 266 270 274 280 284 286 292 298 301
143 124 126 126 119 103 94 89 94 120 122 122 111 108 107 117 62 82 319 334 164 223 225 164 170 133 146 160 104 167 112 63 208 136 104 260 246 25 123 195 230 247 254 251 249 248 251 256 266 277 282 286 292 297
139 131 126 123 113 100 91 82 86 98 104 94 75 97 64 3 43 117 207 296 327 215 182 178 161 143 129 140 88 112 102 197 122 127 219 227 118 111 140 170 166 183 200 197 199 216 232 252 264 275 291 305 320 327
146 140 130 124 116 102 99 89 84 79 79 53 39 12 113 326 273 68 193 210 320 328 214 167 119 145 127 128 137 131 212 101 88 178 231 221 177 156 128 129 165 145 129 126 123 128 123 96 20 6 354 350 350 347
162 154 141 135 137 140 97 78 67 72 86 77 55 240 241 324 264 293 312 314 352 322 274 161 92 133 21 113 129 101 122 192 198 223 212 147 179 173 143 141 153 152 119 52 13 345 329 321 321 326 323 323 325 327
163 148 140 139 158 143 77 59 59 91 72 71 65 71 354 14 335 28 355 9 7 340 222 222 131 82 240 137 125 200 135 206 235 177 77 136 158 170 194 22 331 309 308 300 301 301 298 299 301 305 306 305 308 310
117 95 129 117 119 87 57 63 73 65 54 51 25 42 45 332 285 331 339 339 344 343 248 138 95 201 81 79 284 189 193 239 116 132 67 70 98 58 331 324 315 310 305 302 299 296 296 299 299 300 301 300 305 308
99 103 97 87 68 42 51 69 72 64 64 53 41 9 3 3 335 343 343 339 345 359 345 83 341 156 169 168 264 222 90 332 207 189 39 356 349 340 326 314 311 309 305 305 300 298 299 299 300 301 302 300 303 306
91 85 74 55 38 49 58 48 47 81 62 61 25 357 345 343 352 354 347 338 337 0 334 357 106 192 203 209 229 346 6 11 331 286 281 283 258 296 323 320 318 312 311 308 306 302 301 300 298 298 298 297 297 301
81 55 46 37 18 68 68 46 47 73 82 30 10 360 355 355 345 349 11 30 64 44 42 37 133 249 67 81 269 302 332 332 336 342 5 291 270 298 315 316 316 310 306 304 306 304 300 296 296 297 297 296 296 298
71 54 63 109 68 60 74 58 54 63 71 75 3 8 342 358 20 19 11 17 55 42 61 49 38 5 338 315 300 306 312 310 313 318 308 301 301 309 317 318 323 319 318 315 312 309 306 304 301 296 294 294 294 296
85 93 74 51 65 68 66 40 58 33 44 56 25 16 32 23 9 7 354 37 56 37 24 359 342 335 327 302 295 294 301 307 307 303 301 308 317 316 313 318 326 329 326 326 326 324 319 314 311 308 304 302 301 302
74 50 58 35 75 49 38 21 37 19 61 343 4 49 29 3 359 356 65 51 59 16 11 5 357 352 338 324 317 317 320 323 325 324 324 325 330 328 331 329 330 332 337 331 333 334 332 327 324 321 319 320 319 320
70 60 36 38 26 26 359 20 19 14 34 29 24 10 350 327 342 56 78 358 359 358 1 354 345 336 317 313 315 312 312 308 304 305 313 310 304 307 309 312 314 319 322 323 327 328 327 325 322 321 320 320 318 318
75 15 26 10 16 21 25 3 355 19 40 352 0 357 344 341 41 41 290 319 348 345 340 339 334 328 318 304 289 299 301 307 312 312 305 307 306 304 306 307 307 307 309 309 307 311 309 311 314 315 315 314 313 314
67 18 34 354 351 43 347 18 10 343 349 346 316 316 333 41 53 285 250 321 327 333 336 329 319 309 301 301 306 311 310 310 307 307 311 306 303 303 303 300 296 299 299 301 305 309 310 313 313 310 308 307 306 304
57 345 13 23 10 352 27 18 359 67 22 3 311 344 20 52 284 264 314 330 335 337 336 332 327 323 319 312 305 304 304 307 309 310 307 303 299 299 298 299 302 304 306 307 310 312 314 313 312 310 308 307 309 308
76 25 13 336 354 14 140 76 54 16 255 287 318 348 164 193 241 329 325 333 337 337 334 333 332 329 327 325 322 318 311 308 311 312 311 308 307 304 304 305 305 306 307 306 306 306 307 308 308 307 304 305 307 304
13 351 348 330 314 279 284 169 237 278 320 251 168 265 259 252 291 313 331 335 334 330 329 324 323 325 324 324 322 320 316 313 312 313 311 314 316 311 310 309 307 304 302 300 299 300 299 299 300 300 301 302 301 299
353 347 338 319 18 286 331 333 305 301 295 264 274 284 281 281 280 299 327 336 344 341 334 330 329 328 326 320 318 311 307 306 305 301 302 304 304 305 304 301 300 299 296 296 297 295 290 290 291 291 293 294 296 297
335 342 313 278 263 279 303 316 309 296 280 268 259 260 284 303 307 288 321 340 337 344 345 340 334 331 334 333 330 330 333 320 318 311 308 309 308 307 304 301 299 298 297 296 297 297 297 295 294 293 292 293 294 294
316 332 333 309 305 310 322 331 309 293 284 274 267 282 307 302 292 296 335 338 338 338 335 330 328 327 324 325 322 318 318 316 310 309 308 307 306 306 304 302 301 299 297 296 296 296 295 295 295 295 295 295 294 293
299 315 304 295 302 321 333 338 315 314 267 270 268 284 278 277 269 315 327 329 327 328 325 322 316 320 321 319 316 316 312 309 308 307 305 303 302 301 299 298 297 296 296 295 294 293 293 294 294 295 295 294 294 294
Wind_Speed_850mb
25 20 16 19 21 20 21 26 34 36 36 28 21 16 15 21 20 18 16 10 8 11 10 4 6 4 9 8 7 15 13 5 2 9 8 7 6 11 5 5 17 16 14 7 7 5 29 18 12 34 14 3 4 11
24 23 19 19 21 24 25 29 34 43 43 31 24 18 14 24 23 23 21 18 15 10 16 20 15 14 16 14 29 7 8 7 4 5 3 5 4 3 8 12 1 13 12 15 18 16 8 38 5 18 7 9 7 6
28 26 26 22 22 27 24 20 18 36 48 35 26 21 17 17 22 20 23 22 20 20 18 15 17 18 19 17 12 10 8 9 12 9 5 3 6 4 7 7 6 5 3 7 9 6 5 25 17 15 12 16 13 5
31 27 25 23 22 25 28 25 21 19 46 36 28 22 16 15 17 19 22 23 15 12 7 4 13 15 16 15 15 12 26 19 21 13 6 5 5 2 3 1 3 3 8 6 6 2 6 4 21 10 11 5 1 3
25 25 23 25 21 26 32 33 29 22 28 32 27 20 15 14 16 18 21 21 14 6 8 6 13 11 14 16 17 20 28 34 28 5 5 2 4 6 3 4 3 7 6 6 6 10 11 9 10 8 7 2 3 5
27 29 28 29 33 46 56 49 43 45 43 38 26 22 21 20 21 18 8 14 20 12 8 4 4 4 12 19 23 26 27 19 11 11 3 6 6 4 4 2 6 8 10 4 7 7 12 7 7 6 8 8 10 13
63 65 59 58 60 56 52 48 43 38 33 31 29 27 23 20 17 10 6 6 21 15 6 4 6 5 15 17 12 12 14 11 8 8 5 9 6 9 4 4 4 6 14 11 15 20 12 18 9 8 5 8 9 9
53 51 49 45 52 51 49 44 38 32 28 26 24 23 23 22 27 33 28 13 23 10 6 6 1 3 12 5 7 8 8 7 7 5 6 4 10 5 3 15 17 6 18 13 11 5 13 15 16 11 10 17 16 15
36 40 41 38 41 41 39 38 37 32 27 25 21 20 20 12 8 12 13 12 9 8 5 6 8 6 13 6 9 7 6 5 3 3 1 6 2 7 11 21 18 20 9 11 8 9 6 3 10 16 18 15 16 20
25 28 32 32 32 29 26 23 21 22 20 19 16 9 8 9 24 18 4 3 4 4 3 3 8 3 10 5 4 6 6 5 5 5 7 4 6 11 8 10 1 9 11 7 11 14 16 16 12 12 14 17 21 27
18 21 22 27 24 19 13 8 5 6 9 9 7 8 16 22 8 5 7 7 7 8 5 5 6 6 5 6 4 4 4 1 5 7 8 3 6 5 16 28 20 20 21 24 24 25 25 25 26 25 24 27 29 32
22 21 26 25 21 22 25 20 13 8 10 10 13 19 14 4 6 10 2 5 2 9 3 6 8 8 13 10 6 2 6 4 6 2 6 5 6 2 3 8 16 18 20 22 25 26 26 25 25 25 26 27 28 30
29 33 35 33 30 27 23 23 24 17 16 12 6 5 3 6 10 10 8 7 3 6 16 14 5 11 10 7 9 5 7 7 10 4 8 7 3 2 3 6 5 4 6 9 8 8 8 8 10 11 13 16 18 20
33 34 31 29 25 21 18 16 19 18 7 7 7 5 7 6 4 1 7 6 5 9 6 8 7 5 7 5 4 9 5 7 4 5 12 4 6 1 4 4 7 4 3 4 4 4 4 2 2 4 7 11 15 20
38 33 30 25 19 10 13 9 10 12 6 5 4 3 3 7 7 6 10 9 11 13 2 7 5 4 1 6 2 7 4 7 10 10 5 5 4 2 2 3 4 3 1 1 1 2 4 5 6 9 13 18 23 28
41 47 39 29 17 5 7 10 12 10 6 4 7 4 9 4 5 8 15 5 20 5 4 3 3 6 3 6 5 7 12 11 7 3 3 4 4 3 2 1 1 3 3 4 7 9 12 14 16 19 23 27 32 37
60 54 29 24 13 9 10 11 7 6 7 7 6 7 6 2 9 9 18 17 22 10 1 2 7 11 3 4 1 7 9 4 4 6 8 6 3 1 4 6 6 6 8 10 11 16 20 23 27 32 32 33 36 40
54 29 21 18 14 13 12 8 6 7 12 10 3 6 5 7 11 6 19 16 13 10 9 1 0 2 6 9 7 3 3 2 3 5 1 2 2 5 6 8 11 14 15 18 20 23 28 32 36 40 41 43 42 44
25 18 16 14 15 11 7 7 8 8 8 5 4 6 5 4 7 15 24 13 5 6 9 3 3 3 4 2 3 1 4 6 3 6 12 14 11 10 17 18 19 20 21 24 25 27 30 34 38 41 44 47 51 50
11 10 12 11 12 7 7 8 8 7 4 3 5 6 4 4 9 10 19 10 5 5 12 7 1 1 1 1 1 4 7 11 14 13 5 3 10 19 25 28 26 26 26 28 30 36 37 34 39 44 46 48 51 48
9 8 4 4 8 11 9 6 8 6 3 2 4 6 5 7 9 16 19 18 10 10 3 6 4 4 4 4 4 4 7 10 13 12 19 16 15 24 23 25 28 32 35 36 36 34 38 40 38 39 41 41 42 43
10 10 9 9 8 7 10 12 5 4 2 3 5 8 9 7 12 16 18 16 9 7 6 7 10 9 7 6 6 7 9 11 13 14 17 20 24 22 17 20 20 20 25 28 30 30 29 30 31 30 30 29 30 30
6 6 9 11 7 9 6 10 4 10 5 9 4 5 6 6 11 13 9 7 5 11 12 11 12 10 9 8 8 9 11 12 15 18 18 19 21 24 24 23 23 22 20 20 24 26 27 26 26 26 25 24 24 23
7 8 12 12 19 5 8 12 9 10 7 8 7 5 7 11 20 7 2 4 6 9 11 11 10 8 6 6 8 11 14 13 14 14 15 17 17 18 22 21 23 25 26 25 24 24 25 26 26 26 25 25 25 25
7 23 15 13 19 12 12 11 11 8 6 7 7 6 7 14 5 6 1 6 14 11 10 11 10 11 12 11 12 14 18 20 21 20 20 22 22 23 24 29 29 26 27 24 25 25 25 25 26 26 26 26 26 26
15 23 14 10 11 9 2 7 8 5 3 9 3 11 8 4 7 3 5 9 12 13 14 14 14 14 13 14 16 17 21 24 25 25 21 21 25 29 28 27 25 26 28 28 29 27 26 28 29 28 27 27 28 30
11 8 11 16 8 6 5 2 3 3 6 4 6 9 6 7 4 7 9 10 16 20 20 20 20 21 21 18 20 22 24 26 27 27 26 28 29 29 28 27 25 25 26 28 30 31 31 30 31 31 32 28 30 35
9 14 2 18 6 7 5 1 2 1 4 2 5 4 5 9 7 8 8 17 19 18 19 20 19 20 19 18 18 18 18 20 22 25 24 22 20 22 22 21 21 23 24 26 29 31 34 36 37 37 38 39 36 33
6 20 15 5 4 3 2 4 4 2 7 4 5 5 7 8 8 10 12 15 17 18 17 17 20 20 20 21 21 21 21 23 26 26 24 24 23 22 25 27 28 30 34 35 34 39 42 43 44 47 47 47 45 43
12 24 7 5 2 3 2 6 8 16 17 12 12 12 13 11 10 12 13 15 16 18 19 19 21 21 22 23 22 20 26 28 27 28 31 30 32 32 33 35 38 38 42 45 44 42 42 47 50 52 54 56 55 54
16 13 8 5 7 5 11 26 23 20 14 10 14 16 16 15 10 7 11 19 19 23 23 21 21 24 24 24 26 27 23 23 24 27 30 32 32 33 34 36 39 41 44 47 48 49 49 50 51 53 55 56 55 55
11 7 10 6 5 12 20 11 13 7 6 6 6 8 10 10 8 5 14 22 21 24 27 28 27 23 26 27 29 30 33 33 32 34 38 42 43 43 45 47 47 49 51 54 56 57 57 60 62 63 65 65 64 63
10 9 7 10 9 7 11 22 5 9 8 6 5 6 6 7 8 7 23 22 25 31 30 31 27 27 31 34 34 36 38 38 41 46 50 52 55 56 59 60 60 60 61 62 63 64 66 67 70 70 71 72 72 71
Wind_Direction_850mb
185 179 177 166 172 177 183 182 177 178 172 173 169 174 193 198 189 193 167 145 110 104 86 127 161 94 89 92 137 159 109 123 344 139 167 175 142 212 125 156 172 157 147 175 85 97 259 157 120 167 218 175 85 74
180 181 163 157 169 167 168 174 175 187 176 171 174 166 169 184 183 180 170 162 110 111 117 109 111 120 113 76 124 77 86 101 106 120 114 124 132 150 144 216 352 188 188 178 175 208 200 183 156 201 171 147 139 105
170 165 161 163 167 177 175 177 189 164 157 156 155 153 150 164 182 177 168 156 138 114 110 121 108 107 133 135 144 108 83 106 86 84 120 104 126 157 169 245 106 247 337 163 108 211 181 192 198 181 156 131 126 98
153 158 159 158 167 178 175 174 173 176 168 155 158 157 149 146 156 172 160 148 139 117 104 76 116 119 103 106 141 137 144 125 94 66 67 96 131 49 189 237 139 192 118 146 309 133 82 314 213 186 184 166 43 359
148 154 146 136 133 153 166 163 165 169 160 157 162 156 142 135 141 155 159 163 142 88 138 110 123 97 134 98 114 125 146 142 123 90 70 110 103 77 36 45 288 187 180 188 215 125 98 115 114 164 189 287 353 335
138 138 136 134 135 127 122 129 134 126 114 122 142 146 141 133 131 128 116 180 173 101 92 83 105 124 125 140 124 130 131 114 109 118 107 100 134 98 86 228 283 193 184 142 149 65 54 57 59 64 38 45 29 16
111 104 99 107 103 104 100 99 99 99 104 104 110 117 119 128 142 92 95 154 165 147 92 73 354 90 135 136 136 120 111 95 86 103 97 135 125 131 127 195 254 216 198 204 207 179 172 181 183 184 159 104 89 73
92 92 95 94 92 94 96 97 97 100 107 114 112 111 121 116 109 82 81 109 152 122 100 110 2 61 151 92 84 97 86 101 67 93 114 106 127 120 241 247 228 153 171 156 158 133 119 137 138 118 2 353 357 15
104 108 105 102 98 98 101 102 95 90 97 103 112 112 105 100 76 95 91 76 133 77 100 91 139 195 152 87 92 80 90 50 48 75 323 133 277 218 218 218 224 203 159 159 161 131 139 244 295 324 338 342 336 325
118 118 112 105 102 105 103 102 98 90 90 106 116 72 80 80 115 112 56 43 81 53 95 122 135 151 144 86 48 95 49 110 161 225 136 113 251 246 219 213 148 167 232 286 306 305 307 300 305 305 304 304 308 308
140 136 129 129 114 112 98 88 96 118 118 84 69 66 107 126 102 69 60 51 348 1 180 173 161 124 144 108 150 66 151 47 121 247 147 290 276 200 224 220 230 244 256 266 270 266 270 274 280 284 286 292 298 301
143 124 126 126 119 103 94 89 94 120 122 122 111 108 107 117 62 82 319 334 164 223 225 164 170 133 146 160 104 167 112 63 208 136 104 260 246 25 123 195 230 247 254 251 249 248 251 256 266 277 282 286 292 297
139 131 126 123 113 100 91 82 86 98 104 94 75 97 64 3 43 117 207 296 327 215 182 178 161 143 129 140 88 112 102 197 122 127 219 227 118 111 140 170 166 183 200 197 199 216 232 252 264 275 291 305 320 327
146 140 130 124 116 102 99 89 84 79 79 53 39 12 113 326 273 68 193 210 320 328 214 167 119 145 127 128 137 131 212 101 88 178 231 221 177 156 128 129 165 145 129 126 123 128 123 96 20 6 354 350 350 347
162 154 141 135 137 140 97 78 67 72 86 77 55 240 241 324 264 293 312 314 352 322 274 161 92 133 21 113 129 101 122 192 198 223 212 147 179 173 143 141 153 152 119 52 13 345 329 321 321 326 323 323 325 327
163 148 140 139 158 143 77 59 59 91 72 71 65 71 354 14 335 28 355 9 7 340 222 222 131 82 240 137 125 200 135 206 235 177 77 136 158 170 194 22 331 309 308 300 301 301 298 299 301 305 306 305 308 310
117 95 129 117 119 87 57 63 73 65 54 51 25 42 45 332 285 331 339 339 344 343 248 138 95 201 81 79 284 189 193 239 116 132 67 70 98 58 331 324 315 310 305 302 299 296 296 299 299 300 301 300 305 308
99 103 97 87 68 42 51 69 72 64 64 53 41 9 3 3 335 343 343 339 345 359 345 83 341 156 169 168 264 222 90 332 207 189 39 356 349 340 326 314 311 309 305 305 300 298 299 299 300 301 302 300 303 306
91 85 74 55 38 49 58 48 47 81 62 61 25 357 345 343 352 354 347 338 337 0 334 357 106 192 203 209 229 346 6 11 331 286 281 283 258 296 323 320 318 312 311 308 306 302 301 300 298 298 298 297 297 301
81 55 46 37 18 68 68 46 47 73 82 30 10 360 355 355 345 349 11 30 64 44 42 37 133 249 67 81 269 302 332 332 336 342 5 291 270 298 315 316 316 310 306 304 306 304 300 296 296 297 297 296 296 298
71 54 63 109 68 60 74 58 54 63 71 75 3 8 342 358 20 19 11 17 55 42 61 49 38 5 338 315 300 306 312 310 313 318 308 301 301 309 317 318 323 319 318 315 312 309 306 304 301 296 294 294 294 296
85 93 74 51 65 68 66 40 58 33 44 56 25 16 32 23 9 7 354 37 56 37 24 359 342 335 327 302 295 294 301 307 307 303 301 308 317 316 313 318 326 329 326 326 326 324 319 314 311 308 304 302 301 302
74 50 58 35 75 49 38 21 37 19 61 343 4 49 29 3 359 356 65 51 59 16 11 5 357 352 338 324 317 317 320 323 325 324 324 325 330 328 331 329 330 332 337 331 333 334 332 327 324 321 319 320 319 320
70 60 36 38 26 26 359 20 19 14 34 29 24 10 350 327 342 56 78 358 359 358 1 354 345 336 317 313 315 312 312 308 304 305 313 310 304 307 309 312 314 319 322 323 327 328 327 325 322 321 320 320 318 318
75 15 26 10 16 21 25 3 355 19 40 352 0 357 344 341 41 41 290 319 348 345 340 339 334 328 318 304 289 299 301 307 312 312 305 307 306 304 306 307 307 307 309 309 307 311 309 311 314 315 315 314 313 314
67 18 34 354 351 43 347 18 10 343 349 346 316 316 333 41 53 285 250 321 327 333 336 329 319 309 301 301 306 311 310 310 307 307 311 306 303 303 303 300 296 299 299 301 305 309 310 313 313 310 308 307 306 304
57 345 13 23 10 352 27 18 359 67 22 3 311 344 20 52 284 264 314 330 335 337 336 332 327 323 319 312 305 304 304 307 309 310 307 303 299 299 298 299 302 304 306 307 310 312 314 313 312 310 308 307 309 308
76 25 13 336 354 14 140 76 54 16 255 287 318 348 164 193 241 329 325 333 337 337 334 333 332 329 327 325 322 318 311 308 311 312 311 308 307 304 304 305 305 306 307 306 306 306 307 308 308 307 304 305 307 304
13 351 348 330 314 279 284 169 237 278 320 251 168 265 259 252 291 313 331 335 334 330 329 324 323 325 324 324 322 320 316 313 312 313 311 314 316 311 310 309 307 304 302 300 299 300 299 299 300 300 301 302 301 299
353 347 338 319 18 286 331 333 305 301 295 264 274 284 281 281 280 299 327 336 344 341 334 330 329 328 326 320 318 311 307 306 305 301 302 304 304 305 304 301 300 299 296 296 297 295 290 290 291 291 293 294 296 297
335 342 313 278 263 279 303 316 309 296 280 268 259 260 284 303 307 288 321 340 337 344 345 340 334 331 334 333 330 330 333 320 318 311 308 309 308 307 304 301 299 298 297 296 297 297 297 295 294 293 292 293 294 294
316 332 333 309 305 310 322 331 309 293 284 274 267 282 307 302 292 296 335 338 338 338 335 330 328 327 324 325 322 318 318 316 310 309 308 307 306 306 304 302 301 299 297 296 296 296 295 295 295 295 295 295 294 293
299 315 304 295 302 321 333 338 315 314 267 270 268 284 278 277 269 315 327 329 327 328 325 322 316 320 321 319 316 316 312 309 308 307 305 303 302 301 299 298 297 296 296 295 294 293 293 294 294 295 295 294 294 294